Flag for Romania Weather past 2 weeks in Timișoara, Romania

Now
73 °F

Passing clouds.


Feels Like: 75 °F
Forecast: 61 / 74 °F
Wind: 5 mph from North

Location: Timisoara Airport

Current Time: May 22, 2015 at 4:43:25 PM

Latest Report: May 22, 2015 at 4:00 PM


Visibility: N/A

Pressure: 29.95 "Hg

Humidity: 74%

Dew point: 64 °F

Location of TimișoaraLocation

Historic Weather in Timișoara — Graph

°F

Timișoara temperature yesterday

Maximum temperature yesterday: 82 °F (at 2:00 PM)
Minimum temperature yesterday: 57 °F (at 4:00 AM)
Average temperature yesterday: 70 °F

Past Weeks' High & Low Weather Summary

 TemperatureHumidityPressure
High86 °F (May 19, 3:00 PM)100% (May 11, 3:30 AM)30.33 "Hg (May 11, 3:30 AM)
Low43 °F (May 9, 5:30 AM)19% (May 18, 6:00 PM)29.74 "Hg (May 14, 4:00 PM)
Average64 °F66%30.01 "Hg
* Reported May 7 3:00 PM — May 22 3:30 PM, Timișoara, Weather by CustomWeather, © 2015

Note: Actual official high and low records may vary slightly from our data, if they occured in-between our weather recording intervals... More about our weather records

Advertising

Timișoara weather history for previous 24 hours

 ConditionsComfort  
Time TempWeatherWind HumidityBarometerVisibility
3:30 PM
Fri, May 22
73 °FPassing clouds.3 mph74%29.95 "HgN/A
3:00 PM72 °FPassing clouds.2 mph78%29.95 "HgN/A
2:30 PM72 °FPassing clouds.2 mph78%29.95 "HgN/A
2:00 PM72 °FScattered clouds.3 mph78%29.95 "HgN/A
1:30 PM72 °FScattered clouds.2 mph78%29.98 "HgN/A
1:00 PM72 °FScattered clouds.1 mph73%29.98 "HgN/A
12:30 PM72 °FPassing clouds.1 mph73%29.98 "HgN/A
12:00 PM72 °FPassing clouds.2 mph73%29.98 "HgN/A
11:30 AM70 °FPassing clouds.2 mph78%29.98 "HgN/A
11:00 AM70 °FPassing clouds.2 mph78%29.98 "HgN/A
10:30 AM70 °FPassing clouds.3 mph78%29.98 "HgN/A
10:00 AM68 °FPassing clouds.2 mph78%29.98 "HgN/A
9:30 AM66 °FPassing clouds.5 mph83%29.98 "HgN/A
9:00 AM66 °FPassing clouds.5 mph88%29.98 "HgN/A
8:30 AM64 °FPassing clouds.3 mph88%29.95 "HgN/A
8:00 AM64 °FPassing clouds.7 mph88%29.98 "HgN/A
7:30 AM63 °FSunny.7 mph94%29.95 "Hg10 mi
7:00 AM63 °FSunny.7 mph94%29.95 "Hg10 mi
6:30 AM63 °FClear.7 mph94%29.98 "Hg10 mi
6:00 AM63 °FClear.8 mph94%29.98 "Hg10 mi
5:30 AM63 °FClear.9 mph94%29.98 "Hg10 mi
5:00 AM63 °FClear.9 mph94%29.98 "Hg10 mi
4:30 AM63 °FPassing clouds.7 mph94%29.98 "HgN/A
4:00 AM63 °FPassing clouds.8 mph94%29.98 "HgN/A
3:30 AM63 °FClear.8 mph100%29.98 "Hg10 mi
3:00 AM63 °FSprinkles. Passing clouds.6 mph100%29.98 "HgN/A
2:30 AM63 °FSprinkles. Passing clouds.5 mph100%29.98 "HgN/A
2:00 AM64 °FClear.5 mph94%29.98 "Hg10 mi
1:30 AM64 °FClear.7 mph94%29.98 "Hg5 mi
1:00 AM64 °FSprinkles. Passing clouds.6 mph94%29.98 "Hg5 mi
12:30 AM64 °FSprinkles. Passing clouds.3 mph100%30.01 "Hg5 mi
12:00 AM64 °FPassing clouds.2 mph100%30.01 "Hg5 mi
11:30 PM
Thu, May 21
64 °FPassing clouds.2 mph94%30.01 "HgN/A
11:00 PM66 °FPassing clouds.3 mph88%30.01 "HgN/A
10:30 PM68 °FSprinkles. Passing clouds.3 mph78%30.01 "Hg5 mi
10:00 PM68 °FSunny.5 mph78%30.01 "Hg10 mi
9:30 PM68 °FSunny.6 mph78%30.01 "Hg10 mi
9:00 PM68 °FSunny.10 mph73%29.98 "Hg10 mi
8:30 PM70 °FSprinkles. Passing clouds.9 mph73%29.95 "HgN/A
8:00 PM72 °FPassing clouds.10 mph69%29.98 "HgN/A
7:30 PM73 °FPassing clouds.9 mph65%29.95 "HgN/A
7:00 PM75 °FPassing clouds.10 mph61%29.95 "HgN/A
6:30 PM77 °FPassing clouds.13 mph57%29.95 "HgN/A
6:00 PM79 °FPassing clouds.14 mph54%29.92 "HgN/A
5:30 PM79 °FPassing clouds.16 mph54%29.92 "HgN/A
5:00 PM81 °FPassing clouds.14 mph48%29.92 "HgN/A
4:30 PM82 °FPassing clouds.10 mph45%29.92 "HgN/A
4:00 PM82 °FPassing clouds.7 mph45%29.92 "HgN/A
Weather by CustomWeather, © 2015

See weather overviewHow to use our weather pages